• Join FlightAware (Why Join?)
  • Login
  • US Flag 
12:23PM EDT


 

Airport Tracker/Info


-or-


 

Live Flight TrackerFlight Track Log ✈ N559LC ✈ 29-May-2013 ✈ KORD - KDTW

Flight Track Log - Related Links

Times and Time Zones

All times are in EDT time to prevent confusion due to time zone crossing. See the N559LC flight status page for this flight to view local times or setup timezone preferences in your user account.

Time Position Orientation Groundspeed Altitude Reporting Facility
EDT Latitude Longitude Course Direction KTS MPH feet Rate Location/Type
12:05AM 41.9667 -87.9333 285° West 184 212 1,900  Level Chicago TRACON
12:06AM 41.9833 -88.0167 285° West 212 244 4,300 2,520 Climbing Chicago TRACON
12:07AM 42.0167 -88.0833 304° West 292 336 7,100 3,300 Climbing Chicago TRACON
12:08AM 42.0833 -88.0500 20° North 316 364 11,000 3,360 Climbing Chicago TRACON
12:09AM 42.1311 -88.0028 36° Northeast 313 360 12,900 2,280 Climbing Chicago Center
12:10AM 42.2142 -87.9383 30° Northeast 338 389 15,000 1,560 Climbing Chicago Center
12:11AM 42.2989 -87.8964 20° North 339 390 16,100 1,980 Climbing Chicago Center
12:12AM 42.3936 -87.8503 20° North 349 402 19,100 2,400 Climbing Chicago Center
12:13AM 42.4900 -87.8019 20° North 365 420 21,000 900 Climbing Chicago Center
12:14AM 42.5992 -87.7497 19° North 407 468 21,000  Level Chicago Center
12:15AM 42.7053 -87.6672 30° Northeast 438 504 21,000  Level Chicago Center
12:16AM 42.7725 -87.4994 61° Northeast 433 498 21,000  Level Chicago Center
12:17AM 42.8058 -87.3422 74° East 441 507 21,000  Level Chicago Center
12:18AM 42.8414 -87.1844 73° East 440 506 21,000  Level Chicago Center
12:19AM 42.8753 -87.0211 74° East 446 513 21,000  Level Chicago Center
12:20AM 42.9111 -86.8564 73° East 455 524 21,000  Level Chicago Center
12:21AM 42.9467 -86.6892 74° East 458 527 21,000  Level Chicago Center
12:22AM 42.9828 -86.5242 73° East 456 525 21,000  Level Chicago Center
12:23AM 43.0169 -86.3594 74° East 453 521 21,000  Level Chicago Center
12:24AM 43.0519 -86.1931 74° East 454 522 21,000  Level Chicago Center
12:25AM 43.0886 -86.0222 74° East 454 522 21,000  Level Chicago Center
12:26AM 43.1236 -85.8447 75° East 462 532 21,000  Level Chicago Center
12:27AM 43.1569 -85.6778 75° East 458 527 21,000  Level Chicago Center
12:28AM 43.1906 -85.5103 75° East 456 525 21,000  Level Chicago Center
12:29AM 43.2172 -85.3428 78° East 450 518 21,000  Level Chicago Center
12:30AM 43.1889 -85.1783 103° East 444 511 21,000  Level Chicago Center
12:31AM 43.1183 -85.0392 125° Southeast 438 504 21,100 -60 Climbing Chicago Center
12:32AM 43.0461 -84.9011 126° Southeast 443 510 20,900 -720 Descending Chicago Center
12:33AM 42.9758 -84.7653 125° Southeast 439 505 19,700 -1,260 Descending Chicago Center
12:34AM 42.9058 -84.6328 126° Southeast 433 498 18,400 -1,440 Descending Chicago Center
12:35AM 42.8381 -84.5050 126° Southeast 420 483 16,900 -1,500 Descending Chicago Center
12:36AM 42.7744 -84.3817 125° Southeast 404 465 15,400 -1,560 Descending Chicago Center
12:37AM 42.6958 -84.2419 127° Southeast 398 458 13,800 -1,620 Descending Cleveland Center
12:37AM 42.6686 -84.1867 124° Southeast 396 456 13,100 -1,620 Descending Cleveland Center
12:38AM 42.6211 -84.1047 128° Southeast 396 456 12,000 -1,500 Descending Cleveland Center
12:38AM 42.6033 -84.0672 123° Southeast 383 441 11,600 -1,140 Descending Cleveland Center
12:39AM 42.5619 -83.9917 127° Southeast 384 442 10,900 -1,020 Descending Cleveland Center
12:39AM 42.5461 -83.9597 124° Southeast 354 407 10,600 -1,140 Descending Cleveland Center
12:40AM 42.5150 -83.8875 120° Southeast 355 409 9,800 -1,320 Descending Cleveland Center
12:40AM 42.5075 -83.8561 108° East 306 352 9,300 -1,740 Descending Cleveland Center
12:41AM 42.4825 -83.7817 114° Southeast 322 371 8,100 -1,740 Descending Cleveland Center
12:41AM 42.4750 -83.7503 108° East 299 344 7,600 -1,920 Descending Cleveland Center
12:42AM 42.4519 -83.6817 114° Southeast 304 350 6,200 -1,920 Descending Cleveland Center
12:42AM 42.4442 -83.6531 110° East 285 328 5,700 4,800 Descending Cleveland Center
12:43AM 42.4189 -83.5844 117° Southeast 292 336 11,000 -2,040 Climbing Cleveland Center
12:43AM 42.4094 -83.5500 110° East 281 323 3,700 -8,040 Descending Cleveland Center
12:44AM 42.3961 -83.5044 112° Southeast 287 330 3,000 -720 Descending Cleveland Center
12:44AM 42.3786 -83.4531 115° Southeast 283 326 3,000  Level Cleveland Center
12:45AM 42.3631 -83.4017 112° Southeast 277 319 3,000  Level Cleveland Center
12:46AM 42.3514 -83.3647 113° Southeast 216 249 3,000  Level Cleveland Center
12:46AM 42.3356 -83.3331 124° Southeast 249 287 3,000 -240 Level Cleveland Center
12:47AM 42.3169 -83.3267 166° South 157 181 2,800 -840 Descending Cleveland Center
12:48AM 42.2772 -83.3306 184° South 136 157 1,900 -840 Descending Cleveland Center
12:49AM 42.2456 -83.3544 209° Southwest 133 153 1,100 -840 Descending Cleveland Center
12:51AM 42.2124 -83.3534 190° South  Level Estimated